Patterson, LA

4:31 AM CST on December 09, 2019 (GMT -0600)
Williams Memorial

Weather History for KPTN - August, 2019

Change the Weather History Date:

Saturday, August 31, 2019

  Actual Average Record
Temperature  
Mean Temperature 83 °F -  
Max Temperature 91 °F 87 °F 93 °F (2011)
Min Temperature 75 °F 72 °F 69 °F (2004)
Cooling Degree Days 18    
Growing Degree Days 33 (Base 50)    
Moisture  
Dew Point 75 °F    
Average Humidity 85    
Maximum Humidity 100    
Minimum Humidity 52    
Precipitation  
Precipitation 0.00 in - - ()
Sea Level Pressure  
Sea Level Pressure 30.01 in    
Wind  
Wind Speed 2 mph (NNE)    
Max Wind Speed 13 mph    
Max Gust Speed -    
Visibility 8 miles    
Events      
Averages and records for this station are not official NWS values.
T = Trace of Precipitation, MM = Missing Value Source: NWS Daily Summary

Daily Weather History Graph

Daily Weather History Graph

Search for Another Location

Airport or City:

Astronomy

Aug. 31, 2019 Rise Set
Actual Time 6:41 AM CDT 7:28 PM CDT
Civil Twilight 6:17 AM CDT 7:53 PM CDT
Nautical Twilight 5:48 AM CDT 8:21 PM CDT
Astronomical Twilight 5:19 AM CDT 8:51 PM CDT
Moon 7:56 AM CDT (8/31) 8:47 PM CDT (8/31)
Length of Visible Light 13h 35m
Length of Day
12h 47m
New Moon, 3% of the Moon is Illuminated
Aug 31
New Moon
Sep 5
First Quarter
Sep 13
Full
Sep 21
Last Quarter
Sep 28
New

Hourly Weather History & Observations

Time (CDT) Temp. Heat Index Dew Point Humidity Pressure Visibility Wind Dir Wind Speed Gust Speed Precip Events Conditions
12:56 AM 77.0 °F - 75.9 °F 96% 30.01 in 10.0 mi Calm Calm - N/A   Clear
1:56 AM 77.0 °F - 75.9 °F 96% 30.01 in 10.0 mi Calm Calm - N/A   Clear
2:56 AM 77.0 °F - 75.9 °F 96% 30.01 in 7.0 mi Calm Calm - N/A   Clear
3:56 AM 75.9 °F - 75.9 °F 100% 30.01 in 6.0 mi Calm Calm - N/A   Clear
4:56 AM 75.9 °F - 75.9 °F 100% 30.00 in 2.5 mi Calm Calm - N/A   Clear
5:11 AM 75.2 °F - 75.2 °F 100% 30.00 in 10.0 mi Calm Calm - N/A   Clear
5:21 AM 75.2 °F - 75.2 °F 100% 30.01 in 1.5 mi Calm Calm - N/A   Clear
5:27 AM 75.2 °F - 75.2 °F 100% 30.01 in 0.8 mi Calm Calm - N/A   Clear
5:30 AM 75.2 °F - 75.2 °F 100% 30.01 in 1.2 mi Calm Calm - N/A   Clear
5:35 AM 75.2 °F - 75.2 °F 100% 30.01 in 3.0 mi Calm Calm - N/A   Clear
5:56 AM 77.0 °F - 75.9 °F 96% 30.02 in 5.0 mi Calm Calm - N/A   Clear
6:07 AM 75.2 °F - 75.2 °F 100% 30.02 in 1.8 mi Calm Calm - N/A   Clear
6:15 AM 75.2 °F - 75.2 °F 100% 30.02 in 3.0 mi Calm Calm - N/A   Clear
6:38 AM 75.2 °F - 75.2 °F 100% 30.03 in 2.5 mi Calm Calm - N/A   Clear
6:51 AM 75.2 °F - 75.2 °F 100% 30.02 in 4.0 mi NNE 3.5 mph - N/A   Clear
6:56 AM 75.9 °F - 75.0 °F 97% 30.02 in 5.0 mi North 3.5 mph - N/A   Clear
7:56 AM 79.0 °F - 78.1 °F 97% 30.04 in 10.0 mi North 4.6 mph - N/A   Clear
8:56 AM 82.9 °F 92.8 °F 78.1 °F 85% 30.04 in 10.0 mi North 4.6 mph - N/A   Clear
9:56 AM 84.9 °F 96.6 °F 78.1 °F 80% 30.04 in 10.0 mi NNW 5.8 mph - N/A   Partly Cloudy
10:56 AM 88.0 °F 98.5 °F 75.9 °F 67% 30.03 in 10.0 mi ENE 6.9 mph - N/A   Scattered Clouds
11:56 AM 89.1 °F 100.2 °F 75.9 °F 65% 30.03 in 10.0 mi North 8.1 mph - N/A   Mostly Cloudy
12:56 PM 90.0 °F 99.0 °F 73.9 °F 59% 30.03 in 10.0 mi NE 8.1 mph - N/A   Partly Cloudy
1:56 PM 91.0 °F 101.6 °F 75.0 °F 59% 30.01 in 10.0 mi NE 8.1 mph - N/A   Partly Cloudy
2:56 PM 91.0 °F 99.3 °F 73.0 °F 55% 29.99 in 10.0 mi NNE 6.9 mph - N/A   Partly Cloudy
3:56 PM 91.0 °F 99.3 °F 73.0 °F 55% 29.98 in 10.0 mi NE 8.1 mph - N/A   Scattered Clouds
4:56 PM 91.0 °F 97.6 °F 71.1 °F 52% 29.97 in 10.0 mi NNE 12.7 mph - N/A   Clear
5:56 PM 90.0 °F 95.4 °F 70.0 °F 52% 29.96 in 10.0 mi NE 9.2 mph - N/A   Clear
6:56 PM 86.0 °F 92.2 °F 72.0 °F 63% 29.97 in 10.0 mi NE 5.8 mph - N/A   Clear
7:51 PM 80.6 °F 85.4 °F 73.4 °F 79% 29.97 in 10.0 mi ENE 4.6 mph - N/A   Mostly Cloudy
7:56 PM 81.0 °F 86.2 °F 73.9 °F 79% 29.98 in 10.0 mi ENE 3.5 mph - N/A   Mostly Cloudy
8:20 PM 80.6 °F 85.4 °F 73.4 °F 79% 29.97 in 10.0 mi Calm Calm - N/A   Partly Cloudy
8:56 PM 80.1 °F 84.5 °F 73.9 °F 81% 29.98 in 10.0 mi Calm Calm - N/A   Clear
9:56 PM 77.0 °F - 75.0 °F 94% 29.99 in 10.0 mi Calm Calm - N/A   Clear
10:56 PM 77.0 °F - 75.0 °F 94% 29.99 in 10.0 mi Calm Calm - N/A   Clear
11:56 PM 77.0 °F - 73.9 °F 90% 30.00 in 10.0 mi NNE 3.5 mph - N/A   Mostly Cloudy